Wind_Speed
17 16 15 15 13 13 14 14 14 16 15 17 20 20 21 23 25 27 27 27 25 25
16 15 14 13 12 14 14 13 15 15 15 15 15 15 17 16 15 16 13 11 14 13
16 15 14 14 17 14 14 14 13 13 13 13 11 9 8 4 2 4 7 6 9 11
15 15 16 17 16 16 15 15 16 17 16 15 15 13 10 12 13 12 12 13 12 14
10 13 14 14 14 15 15 15 16 17 17 17 16 17 16 17 15 16 14 16 16 15
9 9 10 12 12 12 12 12 11 11 13 13 14 14 13 12 14 16 14 17 17 16
10 11 10 10 10 11 12 12 11 11 10 11 12 11 10 10 11 11 14 14 16 14
8 9 10 11 11 11 11 12 12 11 11 12 12 13 10 9 10 11 14 13 16 17
4 6 8 10 10 10 11 11 9 12 13 13 13 9 8 10 12 12 13 14 14 15
4 4 5 6 8 9 9 9 9 8 9 11 12 10 10 10 11 10 9 9 9 9
3 4 5 7 8 8 7 7 7 8 8 9 10 8 8 7 9 11 11 8 7 7
4 4 5 6 6 7 6 6 6 5 6 8 9 9 9 9 8 9 8 8 9 8
2 3 4 5 5 5 5 5 4 2 2 4 6 9 11 11 10 10 10 9 9 8
2 2 3 3 2 2 3 3 2 2 2 1 2 3 6 9 10 10 11 12 12 11
Wind_Direction
22 25 24 21 13 1 356 353 336 329 323 316 313 304 294 284 276 269 261 265 265 261
31 26 26 22 24 11 0 360 348 340 337 330 319 312 299 285 283 260 249 253 248 245
41 40 33 35 28 30 22 16 12 4 5 1 354 353 4 9 114 106 137 141 111 120
29 37 41 41 39 36 35 36 34 33 34 27 25 28 39 54 70 78 80 89 86 84
29 28 29 37 38 37 38 38 42 35 35 34 30 41 47 51 62 69 68 68 80 76
12 19 21 16 14 21 21 22 33 36 36 32 28 34 39 53 59 64 61 70 75 70
4 6 8 6 5 6 13 11 13 17 23 27 23 22 38 50 62 78 80 77 75 68
0 2 3 6 14 19 20 19 19 31 42 41 39 28 35 61 65 77 84 76 75 76
350 360 2 1 1 6 10 14 24 32 37 43 43 35 43 66 71 73 73 76 74 69
319 329 349 350 351 359 6 9 17 26 32 35 39 43 55 70 69 73 83 74 77 76
304 319 334 338 345 355 6 13 17 25 31 38 44 44 46 60 75 78 78 85 87 74
313 317 329 337 345 355 4 20 32 38 42 31 32 26 32 42 57 63 70 69 57 40
269 303 325 332 338 348 351 354 352 0 79 50 36 22 25 24 27 29 27 24 21 21
226 265 308 315 320 334 347 356 32 99 104 65 66 65 22 12 16 5 2 359 359 5
Height
760 756 753 751 750 750 746 744 742 740 737 734 732 729 726 723 721 721 720 720 720 719
759 758 756 754 750 750 748 743 741 739 735 731 729 727 723 719 717 715 715 714 713 714
762 759 758 754 753 749 747 745 741 739 735 732 730 726 722 717 713 713 712 713 711 710
768 764 760 756 753 751 748 745 744 742 737 735 733 728 725 719 716 716 715 713 714 713
768 766 764 760 757 754 750 746 744 742 740 738 737 732 728 725 723 719 720 719 718 718
769 765 763 762 760 755 753 750 746 745 743 742 740 737 734 729 727 725 727 721 719 722
771 768 765 762 760 758 755 753 750 748 745 743 741 739 737 735 733 731 728 728 724 727
771 769 767 766 763 760 757 756 754 750 748 746 745 743 740 737 736 734 733 732 730 731
768 767 767 766 765 763 761 759 756 755 752 749 747 746 745 741 738 737 736 733 733 734
770 768 766 764 763 762 761 761 759 757 755 754 752 749 747 745 743 741 740 739 738 738
769 767 766 765 764 762 760 760 760 760 759 758 756 754 752 749 746 745 743 743 742 741
769 768 767 765 764 763 761 761 760 760 760 761 760 758 756 753 751 749 747 746 744 743
765 766 765 765 764 763 762 760 760 759 758 758 759 759 758 757 754 752 750 747 745 743
763 764 764 764 762 761 761 761 760 759 758 758 756 756 756 756 755 753 751 749 746 744